Imperial, NE

3:30 AM MDT on September 28, 2016 (GMT -0600)
Imperial Municipal

Weather History for KIML - May, 2014

Change the Weather History Date:

Wednesday, May 21, 2014

  Actual Average Record
Temperature  
Mean Temperature 68 °F 62 °F  
Max Temperature 81 °F 75 °F 99 °F (1948)
Min Temperature 54 °F 48 °F 22 °F (1931)
Degree Days  
Heating Degree Days 0 5  
Month to date heating degree days 215 165  
Cooling Degree Days 3 2  
Month to date cooling degree days 10 20  
Year to date cooling degree days 11 21  
Growing Degree Days 17 (Base 50)    
Moisture  
Dew Point 47 °F    
Average Humidity 57    
Maximum Humidity 84    
Minimum Humidity 30    
Precipitation  
Precipitation 0.01 in 0.10 in 1.51 in (1977)
Sea Level Pressure  
Sea Level Pressure 30.02 in    
Wind  
Wind Speed 12 mph (ENE)    
Max Wind Speed 22 mph    
Max Gust Speed 26 mph    
Visibility 10 miles    
Events Rain    
T = Trace of Precipitation, MM = Missing Value Source: NWS Daily Summary

Daily Weather History Graph

Daily Weather History Graph

Search for Another Location

Airport or City:

Trip Planner

Search our weather history database for the weather conditions in past years. The results will help you decide how hot, cold, wet, or windy it might be!

Date:

Astronomy

May. 21, 2014 Rise Set
Actual Time 5:24 AM MDT 8:01 PM MDT
Civil Twilight 4:53 AM MDT 8:33 PM MDT
Nautical Twilight 4:13 AM MDT 9:13 PM MDT
Astronomical Twilight 3:29 AM MDT 9:57 PM MDT
Moon 1:10 AM MDT (5/21) 12:43 PM MDT (5/21)
Length of Visible Light 15h 40m
Length of Day
14h 37m
Waning Gibbous, 48% of the Moon is Illuminated
May 21
Waning Gibbous
May 28
New
Jun 5
First Quarter
Jun 12
Full
Jun 19
Last Quarter

Hourly Weather History & Observations

Time (MDT) Temp. Dew Point Humidity Pressure Visibility Wind Dir Wind Speed Gust Speed Precip Events Conditions
12:53 AM 59.0 °F 46.0 °F 62% 29.86 in 10.0 mi ENE 10.4 mph - N/A   Clear
1:53 AM 57.0 °F 46.0 °F 67% 29.89 in 10.0 mi East 5.8 mph - N/A   Clear
2:53 AM 55.0 °F 46.9 °F 74% 29.94 in 10.0 mi NNW 9.2 mph - N/A   Clear
3:53 AM 54.0 °F 46.0 °F 75% 29.99 in 10.0 mi North 6.9 mph - N/A   Partly Cloudy
4:53 AM 54.0 °F 46.0 °F 75% 30.01 in 10.0 mi North 9.2 mph - N/A   Mostly Cloudy
5:53 AM 55.0 °F 46.0 °F 72% 30.02 in 10.0 mi NNE 11.5 mph - N/A   Mostly Cloudy
6:53 AM 57.0 °F 46.0 °F 67% 30.02 in 10.0 mi ENE 12.7 mph - N/A   Clear
7:53 AM 62.1 °F 45.0 °F 53% 30.04 in 10.0 mi East 13.8 mph - N/A   Clear
9:53 AM 69.1 °F 45.0 °F 42% 30.09 in 10.0 mi NE 12.7 mph - N/A   Mostly Cloudy
10:53 AM 70.0 °F 45.0 °F 41% 30.07 in 10.0 mi NE 12.7 mph 19.6 mph N/A   Clear
11:53 AM 73.4 °F 44.6 °F 36% 30.11 in 10.0 mi ENE 12.7 mph - N/A   Clear
12:53 PM 75.0 °F 45.0 °F 34% 30.04 in 10.0 mi East 13.8 mph 23.0 mph N/A   Clear
1:53 PM 79.0 °F 46.0 °F 31% 30.01 in 10.0 mi ESE 15.0 mph 20.7 mph N/A   Clear
2:53 PM 80.1 °F 46.0 °F 30% 29.99 in 10.0 mi ESE 20.7 mph 25.3 mph N/A   Clear
3:53 PM 80.1 °F 46.0 °F 30% 30.00 in 10.0 mi East 16.1 mph - N/A   Clear
4:53 PM 78.1 °F 46.0 °F 32% 29.99 in 10.0 mi ESE 15.0 mph 23.0 mph N/A   Clear
5:53 PM 75.9 °F 46.0 °F 35% 30.00 in 10.0 mi ESE 13.8 mph - N/A   Clear
6:53 PM 73.0 °F 46.9 °F 39% 30.03 in 10.0 mi ESE 10.4 mph - N/A   Clear
7:53 PM 71.1 °F 46.9 °F 42% 30.03 in 10.0 mi East 9.2 mph - N/A   Mostly Cloudy
8:53 PM 66.9 °F 51.1 °F 57% 30.06 in 10.0 mi NE 8.1 mph - 0.00 in Rain Light Rain
9:53 PM 61.0 °F 55.0 °F 81% 30.11 in 10.0 mi NW 11.5 mph - 0.00 in Rain Light Rain
10:53 PM 60.1 °F 55.9 °F 86% 30.10 in 10.0 mi East 6.9 mph - 0.01 in Rain Light Rain
11:53 PM 59.0 °F 55.0 °F 87% 30.06 in 10.0 mi East 9.2 mph - 0.00 in   Partly Cloudy